Location: Cz?stochówka
(50.8142°N, 19.0915°E)
Time: 20:49:08
(UTC+00:00)

Cosmos 2366 rocket - Pass Details

Date: 13 January 2026
Orbit: 955 x 995 km, 82.9° (Epoch: 13 February)

Event Time Altitude Azimuth Distance (km) Brightness Sun altitude
Rises 05:32:42 0° 179° (S) 3,632 7.3 -10.4°
Reaches altitude 10° 05:35:11 10° 177° (S) 2,695 6.7 -10.0°
Maximum altitude 05:41:18 71° 95° (E) 1,029 4.4 -9.1°
Drops below altitude 10° 05:47:33 10° 13° (NNE) 2,741 6.3 -8.2°
Sets 05:50:05 0° 12° (NNE) 3,699 6.9 -7.9°
